Weather History for Dallas Love, TX

Change the Weather History Date:

Sunday, March 30, 2014

  Actual Average Record
Temperature  
Mean Temperature 64 °F -  
Max Temperature 79 °F 69 °F 87 °F (2008)
Min Temperature 50 °F 51 °F 36 °F (2003)
Degree Days  
Heating Degree Days 1    
Growing Degree Days 14 (Base 50)    
Moisture  
Dew Point 37 °F    
Average Humidity 37    
Maximum Humidity 57    
Minimum Humidity 22    
Precipitation  
Precipitation 0.00 in - - ()
Sea Level Pressure  
Sea Level Pressure 30.10 in    
Wind  
Wind Speed 11 mph (SSE)    
Max Wind Speed 23 mph    
Max Gust Speed 29 mph    
Visibility 10 miles    
Events      
Averages and records for this station are not official NWS values.
T = Trace of Precipitation, MM = Missing Value Source: NWS Daily Summary

Daily Weather History Graph

Daily Weather History Graph

Search for Another Location

Airport:

Trip Planner

Search our weather history database for the weather conditions in past years. The results will help you decide how hot, cold, wet, or windy it might be!

Date:

Astronomy

Mar. 30, 2014 Rise Set
Actual Time 7:17 AM CDT 7:46 PM CDT
Civil Twilight 6:53 AM CDT 8:11 PM CDT
Nautical Twilight 6:24 AM CDT 8:40 PM CDT
Astronomical Twilight 5:54 AM CDT 9:09 PM CDT
Moon 7:04 AM CDT (3/30) 7:58 PM CDT (3/30)
Length of Visible Light 13h 17m
Length of Day
12h 28m
Waning Crescent, 0% of the Moon is Illuminated
Mar 30
Waning Crescent
Mar 30
New
Apr 7
First Quarter
Apr 15
Full
Apr 22
Last Quarter

Hourly Weather History & Observations

Time (CDT) Temp. Dew Point Humidity Pressure Visibility Wind Dir Wind Speed Gust Speed Precip Events Conditions
12:53 AM 55.9 °F 33.1 °F 42% 30.21 in 10.0 mi ESE 6.9 mph - N/A   Clear
1:53 AM 52.0 °F 34.0 °F 50% 30.20 in 10.0 mi ESE 6.9 mph - N/A   Clear
2:53 AM 55.0 °F 33.1 °F 43% 30.20 in 10.0 mi ESE 5.8 mph - N/A   Clear
3:53 AM 52.0 °F 34.0 °F 50% 30.19 in 10.0 mi SE 6.9 mph - N/A   Clear
4:53 AM 51.1 °F 34.0 °F 52% 30.17 in 10.0 mi SE 8.1 mph - N/A   Partly Cloudy
5:53 AM 51.1 °F 34.0 °F 52% 30.17 in 10.0 mi SE 11.5 mph - N/A   Partly Cloudy
6:53 AM 51.1 °F 33.1 °F 50% 30.18 in 10.0 mi Calm Calm - N/A   Scattered Clouds
7:53 AM 50.0 °F 35.1 °F 57% 30.19 in 10.0 mi SE 5.8 mph - N/A   Mostly Cloudy
8:53 AM 57.0 °F 34.0 °F 42% 30.20 in 10.0 mi SSE 8.1 mph - N/A   Scattered Clouds
9:53 AM 63.0 °F 34.0 °F 34% 30.20 in 10.0 mi SSE 15.0 mph - N/A   Scattered Clouds
10:53 AM 68.0 °F 35.1 °F 30% 30.19 in 10.0 mi SSE 17.3 mph - N/A   Scattered Clouds
11:53 AM 72.0 °F 35.1 °F 26% 30.17 in 10.0 mi SSE 20.7 mph 25.3 mph N/A   Mostly Cloudy
12:53 PM 75.0 °F 35.1 °F 23% 30.13 in 10.0 mi South 18.4 mph 23.0 mph N/A   Scattered Clouds
1:53 PM 75.9 °F 36.0 °F 23% 30.10 in 10.0 mi South 23.0 mph 28.8 mph N/A   Scattered Clouds
2:53 PM 77.0 °F 35.1 °F 22% 30.06 in 10.0 mi South 16.1 mph - N/A   Partly Cloudy
3:53 PM 78.1 °F 37.0 °F 23% 30.03 in 10.0 mi SSE 20.7 mph 27.6 mph N/A   Partly Cloudy
4:53 PM 77.0 °F 39.0 °F 25% 29.99 in 10.0 mi SSE 18.4 mph - N/A   Partly Cloudy
5:53 PM 75.9 °F 39.0 °F 26% 29.96 in 10.0 mi SSE 19.6 mph - N/A   Partly Cloudy
6:53 PM 73.9 °F 39.9 °F 29% 29.97 in 10.0 mi SSE 23.0 mph 27.6 mph N/A   Scattered Clouds
7:53 PM 72.0 °F 41.0 °F 33% 29.96 in 10.0 mi SSE 17.3 mph - N/A   Scattered Clouds
8:53 PM 70.0 °F 41.0 °F 35% 29.96 in 10.0 mi SSE 17.3 mph - N/A   Mostly Cloudy
9:53 PM 68.0 °F 42.1 °F 39% 29.97 in 10.0 mi South 15.0 mph - N/A   Mostly Cloudy
10:53 PM 66.9 °F 44.1 °F 44% 29.97 in 10.0 mi SSE 16.1 mph - N/A   Mostly Cloudy
11:53 PM 64.9 °F 45.0 °F 48% 29.95 in 10.0 mi South 18.4 mph 26.5 mph N/A   Mostly Cloudy